• MPC Preparation (Info)

  • MPEC 2000-S43 : 2000 SG8

    The following Minor Planet Electronic Circular may be linked-to from your own Web pages, but must not otherwise be redistributed electronically.

    A form allowing access to any MPEC is at the bottom of this page.


    Read MPEC 2000-S42 Read MPEC 2000-S44


    M.P.E.C. 2000-S43                                Issued 2000 Sept. 24, 21:45 UT
    
         The Minor Planet Electronic Circulars contain information on unusual
             minor planets and routine data on comets.  They are published
       on behalf of Commission 20 of the International Astronomical Union by the
              Minor Planet Center, Smithsonian Astrophysical Observatory,
                              Cambridge, MA 02138, U.S.A.
    
                 Prepared using the Tamkin Foundation Computer Network
    
                                  MPC@CFA.HARVARD.EDU
              URL http://cfa-www.harvard.edu/iau/mpc.html  ISSN 1523-6714
    
                                       2000 SG8
    
    Observations:
         K00S08G* C2000 09 21.20782 21 51 36.75 -03 07 30.7          18.2 R      699
         K00S08G  C2000 09 21.22761 21 51 31.18 -03 07 40.2                      699
         K00S08G  C2000 09 21.24741 21 51 25.68 -03 07 48.8                      699
         K00S08G  C2000 09 21.26724 21 51 20.28 -03 07 58.8                      699
         K00S08G  C2000 09 23.10983 21 42 54.62 -03 22 22.6          19.4        853
         K00S08G  C2000 09 23.11094 21 42 54.31 -03 22 22.9          19.1        853
         K00S08G  C2000 09 23.19619 21 42 30.30 -03 23 02.6          19.1        704
         K00S08G  C2000 09 23.21079 21 42 26.10 -03 23 10.1          18.9        704
         K00S08G  C2000 09 23.22540 21 42 21.99 -03 23 16.3          18.7        704
         K00S08G  C2000 09 23.24001 21 42 17.89 -03 23 23.8          19.1        704
         K00S08G  C2000 09 23.79978 21 39 42.66 -03 27 47.9          17.7 R      046
         K00S08G  C2000 09 23.80236 21 39 42.00 -03 27 50.0                      046
         K00S08G  C2000 09 23.80625 21 39 40.93 -03 27 50.8                      046
         K00S08G  C2000 09 23.80722 21 39 40.65 -03 27 53.6          18.0 R      046
         K00S08G  C2000 09 23.81573 21 39 38.21 -03 27 56.8                      557
         K00S08G  C2000 09 23.81697 21 39 37.87 -03 27 57.9          18.7 V      557
         K00S08G  C2000 09 23.81821 21 39 37.53 -03 27 57.7                      557
         K00S08G  C2000 09 23.81944 21 39 37.20 -03 27 58.5                      557
         K00S08G  C2000 09 23.84249 21 39 30.82 -03 28 08.4          18.5 V      151
         K00S08G  C2000 09 23.84418 21 39 30.27 -03 28 08.9          18.8 V      151
         K00S08G  C2000 09 23.84589 21 39 29.78 -03 28 10.2          18.9 V      151
         K00S08G  C2000 09 23.85031 21 39 28.58 -03 28 12.1          18.3 V      151
         K00S08G  C2000 09 23.85377 21 39 27.53 -03 28 14.2          18.5 V      151
         K00S08G  C2000 09 23.85644 21 39 26.82 -03 28 16.1          18.3 V      151
         K00S08G  C2000 09 23.89515 21 39 15.88 -03 28 33.7          18.5        163
         K00S08G  C2000 09 23.89588 21 39 15.59 -03 28 34.1                      163
         K00S08G  C2000 09 24.81545 21 34 58.83 -03 35 45.1                      557
    
    Observer details:
    046 Klet.  Observers J. Ticha, M. Tichy. 0.57-m f/5.2 reflector + CCD.
    151 Eschenberg Observatory, Winterthur.  Observer M. Griesser.  0.40-m f/5.8
        Hypergraph.
    163 Roeser Observatory, Luxembourg.  Observer M. Dawson.  0.457-m f/4.5
        reflector + CCD.
    557 Ondrejov.  Observers P. Pravec, L. Sarounova.  0.65-m f/3.6 reflector + CCD.
    699 Lowell Observatory-LONEOS.  Observer B. A. Skiff.  Measurer B. W. Koehn.
        0.59-m LONEOS Schmidt + CCD.
    704 Lincoln Laboratory ETS, New Mexico.  Observers M. Blythe, F. Shelly,
        M. Bezpalko, M. Elowitz, R. Huber, L. Manguso.  Measurers J. Stuart,
        R. Sayer, J. B. Evans, H. Viggh.  1.0-m f/2.15 reflector + CCD.
    853 Biosphere 2 Observatory.  Observer G. J. Garradd.  0.5-m f/8.1 reflector
        + CCD.
    
    Orbital elements:
    2000 SG8
    Epoch 2000 Sept. 13.0 TT = JDT 2451800.5                Spahr
    M 336.23064              (2000.0)            P               Q
    n   0.27702185     Peri.  151.31244     -0.64725968     -0.74876523
    a   2.3305587      Node   338.00872     +0.60604806     -0.39182841
    e   0.8902100      Incl.   22.42486     +0.46234257     -0.53462242
    P   3.56           H   17.5           G   0.15
    From 27 observations 2000 Sept. 21-24.
    
    Ephemeris:
    2000 SG8                 a,e,i = 2.33, 0.89, 22                  q = 0.2559
    Date    TT    R. A. (2000) Decl.     Delta      r     Elong.  Phase     V
    2000 09 23    21 43.41   -03 21.4    0.635    1.568   145.5    21.3    18.5
    2000 10 03    20 56.52   -04 36.0    0.597    1.425   124.2    35.5    18.6
    2000 10 13    20 12.08   -05 32.2    0.589    1.272   103.6    49.6    18.7
    2000 10 23    19 33.07   -06 04.0    0.595    1.108    84.4    63.3    18.8
    2000 11 02    18 57.95   -06 18.0    0.604    0.931    66.2    77.4    18.9
    
    Timothy B. Spahr             (C) Copyright 2000 MPC           M.P.E.C. 2000-S43
    

    Read MPEC 2000-S42 Read MPEC 2000-S44


    MPEC number:

    Enter an MPEC number in one of the following forms:

    • 1997-B01 (the full form)
    • J97B01 (the packed version of the full form)
    • B01 (the abbreviated form)